Location: General Nathan Twining Observatory
(34.5931°N, 106.8201°W)
Time: 13:39:54
(UTC-06:00)

ADEOS II - Visible Passes

Search period start: 19 April 2018 00:00
Search period end: 29 April 2018 00:00
Orbit: 799 x 802 km, 98.4° (Epoch: 18 April)

Date Brightness Start Highest point End Pass type
(mag) Time Alt. Az. Time Alt. Az. Time Alt. Az.
19 Apr 2.4 04:06:03 10° NNE 04:11:16 62° E 04:12:23 50° SSE visible
19 Apr 3.9 05:47:42 10° NNW 05:50:23 14° WNW 05:53:04 10° W visible
20 Apr 3.4 03:40:00 10° NNE 03:44:44 33° E 03:45:42 31° ESE visible
20 Apr 3.2 05:20:01 10° NNW 05:24:14 25° WNW 05:26:40 18° WSW visible
21 Apr 4.2 03:14:32 10° NE 03:18:06 18° E 03:19:02 18° ESE visible
21 Apr 2.5 04:52:59 10° N 04:57:58 45° WNW 04:59:59 31° WSW visible
22 Apr 2.0 04:26:20 10° N 04:31:37 82° WNW 04:33:18 45° SSW visible
23 Apr 2.6 04:00:00 10° NNE 04:05:09 54° E 04:06:37 41° SSE visible
23 Apr 3.7 05:41:14 10° NNW 05:44:21 16° WNW 05:47:30 10° WSW visible
24 Apr 3.6 03:34:02 10° NE 03:38:36 29° E 03:39:56 26° ESE visible
24 Apr 3.1 05:13:45 10° NNW 05:18:11 28° WNW 05:20:53 18° WSW visible
25 Apr 4.3 03:08:47 10° NE 03:11:57 16° E 03:13:15 15° ESE visible
25 Apr 2.3 04:46:49 10° N 04:51:54 51° WNW 04:54:12 30° SW visible
26 Apr 2.0 04:20:14 10° NNE 04:25:31 88° ESE 04:27:31 40° SSW visible
27 Apr 2.8 03:53:58 10° NNE 03:59:03 47° E 04:00:50 34° SSE visible
27 Apr 3.6 05:34:49 10° NNW 05:38:20 18° WNW 05:41:46 10° WSW visible
28 Apr 3.8 03:28:08 10° NE 03:32:28 26° E 03:34:08 22° SE visible
28 Apr 2.9 05:07:30 10° N 05:12:07 32° WNW 05:15:05 19° WSW visible
